Theta_e
313 312 314 313 314 301 306 307 301 304 311 308 304 305 305 304 301 298 306 303 305 311 312 315 316 316 317 318 319 321 322 327 333 331 328 326 329 340 339 340 341 343 342 345 348 350 351 355 355 355 357 358 358 359 360 362 363 362 362 363 363 363 364
314 316 315 315 315 314 308 302 305 311 313 310 305 299 303 300 296 299 303 301 303 302 300 313 313 313 315 316 317 319 322 324 325 329 331 330 328 330 339 341 342 343 343 343 346 349 351 356 355 356 359 360 360 361 360 360 362 363 362 362 361 363 363
313 316 315 312 314 316 310 307 313 304 300 299 305 303 296 297 296 299 302 304 304 305 305 310 310 312 313 316 318 318 318 321 323 330 330 331 330 330 339 341 342 342 343 346 351 347 353 357 359 358 360 358 359 361 360 361 362 363 363 361 362 364 364
312 313 311 303 307 313 315 315 310 312 308 304 301 303 305 305 300 299 300 304 301 309 309 311 312 314 316 315 317 317 317 320 323 326 330 332 330 330 337 336 337 339 341 342 348 352 353 355 357 356 356 356 356 360 362 362 363 365 364 363 364 363 364
311 304 308 305 307 305 306 307 307 307 307 311 308 307 303 302 301 301 300 298 304 312 315 314 315 316 317 317 317 320 319 320 323 329 330 330 329 331 337 337 337 336 338 342 348 354 355 353 358 357 355 355 356 358 362 363 364 364 363 363 362 364 365
305 306 311 311 310 309 307 306 306 307 304 302 299 298 307 304 302 297 300 299 308 312 316 317 316 318 318 318 319 320 320 320 325 326 330 331 331 333 334 335 335 338 346 346 344 348 355 351 355 356 356 356 355 357 361 363 363 364 363 364 364 365 366
306 309 312 314 314 312 310 309 307 310 308 306 302 295 300 304 304 306 306 302 306 315 318 320 319 319 319 319 319 320 320 321 322 325 326 335 334 332 331 333 334 335 339 339 342 345 345 347 352 357 356 355 356 358 360 361 362 363 364 364 364 366 366
312 312 313 313 314 312 309 309 310 309 306 306 305 304 307 303 303 301 302 301 306 315 332 325 318 325 320 321 320 321 320 321 324 325 325 332 332 332 332 337 335 342 343 346 345 345 346 348 356 357 356 357 356 357 358 360 361 363 364 364 364 364 364
305 306 309 309 311 311 308 306 308 310 310 309 309 309 310 304 304 303 301 296 304 313 320 320 318 317 318 318 319 320 319 322 323 326 328 335 335 336 334 338 342 344 345 345 346 346 350 357 356 358 359 357 356 357 358 359 360 363 364 364 363 363 362
295 294 295 298 301 304 307 309 308 309 308 309 306 302 307 299 309 309 302 302 309 314 320 317 317 316 321 319 319 321 322 325 323 335 340 338 336 335 336 337 341 340 343 345 346 347 355 358 356 359 360 357 357 357 357 359 360 361 362 363 362 363 363
303 304 309 310 310 307 303 306 307 307 309 310 310 308 306 301 307 305 309 310 309 312 313 314 313 314 316 317 319 319 324 326 328 336 338 342 343 339 339 342 345 347 348 348 347 352 358 356 355 357 358 357 357 360 359 359 359 359 362 362 363 361 363
308 310 310 310 311 306 306 306 306 308 307 308 308 305 303 317 308 301 311 323 309 310 313 313 316 316 320 317 320 325 327 327 328 335 342 341 334 339 342 344 343 346 347 357 360 356 357 355 356 356 357 358 359 361 359 359 358 358 359 361 362 362 364
308 310 310 311 310 309 308 308 307 306 307 307 306 307 309 313 307 305 315 321 313 312 313 314 316 320 319 317 320 323 323 323 329 333 328 329 331 336 338 350 353 345 343 351 362 362 360 356 355 355 355 357 360 362 360 360 358 358 360 360 361 360 363
307 308 309 311 309 309 308 308 308 308 308 307 307 308 310 310 314 315 313 317 312 314 313 314 316 320 320 321 323 323 322 321 337 327 329 325 326 328 334 343 345 361 359 368 364 364 362 357 358 353 356 359 359 359 359 358 361 359 361 361 361 359 361
304 307 309 309 309 308 307 308 309 309 308 308 308 308 310 311 310 311 312 316 315 315 320 318 321 324 321 322 320 319 325 322 321 323 322 324 327 330 336 350 344 355 358 362 367 367 365 363 361 357 357 359 358 356 356 357 360 360 360 363 361 360 360
301 306 307 308 309 308 306 306 307 309 308 306 307 306 309 309 309 311 311 312 311 316 319 320 320 321 321 319 320 321 321 320 324 322 322 324 333 332 335 344 348 353 353 359 359 361 358 358 362 359 361 359 354 354 355 355 356 358 358 361 361 362 362
299 305 307 307 307 304 302 303 307 309 310 310 310 310 311 311 312 309 308 309 317 321 322 318 319 318 318 319 319 319 322 332 324 325 324 324 324 326 337 339 350 345 347 355 358 354 355 355 354 355 361 355 356 357 357 358 358 356 355 355 362 364 363
299 303 304 306 303 295 297 310 312 311 309 310 308 308 309 312 312 311 314 316 321 320 319 318 318 318 320 323 328 327 329 328 332 323 326 324 325 327 328 330 331 346 356 353 356 353 359 358 352 353 356 355 358 357 356 361 358 358 358 357 360 365 364
297 302 303 299 295 297 309 313 314 314 313 312 309 312 311 311 312 314 314 317 319 320 319 319 321 324 322 323 323 322 324 330 327 327 324 327 329 329 335 340 336 354 358 358 358 353 342 341 351 356 354 352 357 356 357 356 359 363 362 360 360 367 364
301 299 299 292 294 307 310 311 313 315 313 312 310 309 313 314 314 315 315 317 319 321 320 320 323 324 322 323 325 327 325 325 325 322 321 322 324 327 331 353 357 357 350 350 342 357 358 347 344 341 342 351 351 350 352 353 356 361 365 363 360 368 366
295 298 297 298 306 305 307 307 309 311 309 310 309 305 309 314 315 315 315 317 317 317 318 320 321 323 322 323 327 327 326 325 323 322 325 345 344 345 346 347 350 360 360 359 360 363 358 355 348 343 342 339 343 349 350 350 358 359 362 363 360 363 367
300 297 296 296 296 294 301 309 312 314 314 314 314 311 307 315 315 316 315 316 316 315 316 318 324 327 324 321 322 323 330 338 341 344 344 345 344 344 344 351 355 359 357 356 354 352 349 348 348 351 351 353 361 376 356 355 357 356 358 360 363 363 367
296 296 292 294 293 298 307 308 311 314 315 315 315 308 304 319 325 317 315 315 322 322 320 321 323 323 318 317 325 334 336 337 341 341 342 344 344 344 346 352 350 350 353 353 356 361 361 360 365 362 360 363 365 364 371 359 356 356 356 358 362 363 366
295 295 293 292 300 299 303 309 311 314 316 315 311 298 301 317 323 323 323 318 321 321 324 328 327 322 317 317 326 333 335 336 339 340 339 342 343 344 344 351 349 353 359 359 360 355 357 360 364 366 365 367 364 367 367 357 352 356 358 360 364 365 367
295 295 295 298 300 303 306 308 313 313 315 312 301 296 311 320 323 324 323 323 326 327 327 327 323 326 328 329 332 335 336 336 337 340 341 342 343 342 343 346 356 353 353 358 357 356 361 364 361 362 362 359 364 367 367 365 360 356 361 365 368 367 367
292 295 293 295 299 305 307 311 314 317 311 300 297 312 320 322 322 324 326 324 327 327 328 328 327 328 330 331 333 335 335 336 338 339 341 343 344 346 347 351 354 350 350 354 355 354 358 359 361 365 368 363 365 368 365 363 366 363 377 369 370 370 370
293 295 293 291 288 304 308 312 312 314 307 306 314 316 319 322 322 323 325 326 327 328 326 328 328 329 329 332 333 334 336 336 337 339 341 343 344 345 346 349 351 348 349 352 353 356 357 357 357 361 365 368 364 365 365 365 368 376 377 377 372 372 372
289 290 289 290 300 303 310 309 303 308 311 314 314 314 313 319 321 321 323 325 326 328 328 326 327 328 330 330 332 333 335 336 338 340 341 342 343 343 345 345 348 347 350 354 353 356 355 356 359 361 365 367 361 360 361 372 369 373 375 376 375 373 371
295 292 296 301 304 307 309 308 308 310 312 313 314 314 314 314 318 322 322 323 324 326 328 328 327 327 329 330 331 332 333 335 336 338 340 341 343 344 344 346 350 349 349 351 351 351 353 356 358 361 363 366 366 364 367 373 373 373 373 369 378 373 371
303 303 303 306 305 308 308 309 310 311 311 313 313 314 315 316 317 318 320 323 324 325 327 327 329 329 330 331 331 333 333 334 337 339 339 341 343 344 344 347 347 347 349 351 349 349 351 354 356 358 360 360 363 363 366 367 371 371 372 372 375 375 374
295 291 303 304 305 307 309 307 309 311 313 313 313 315 315 315 316 317 319 319 321 324 326 325 325 329 331 331 332 333 334 335 336 337 338 341 343 344 344 347 348 348 349 348 348 349 351 353 355 355 358 360 361 361 364 365 366 369 369 369 372 373 374
295 296 302 303 305 305 307 308 306 307 309 311 315 316 316 315 316 318 318 319 318 320 322 324 324 326 329 331 332 332 333 334 336 338 339 342 343 345 347 348 348 348 348 348 348 349 349 351 354 355 357 359 361 363 361 363 364 364 364 364 368 366 368
298 301 303 303 303 304 305 306 308 309 309 311 314 314 314 314 314 315 316 317 317 318 319 322 324 324 326 330 333 333 333 334 336 337 338 342 343 344 346 347 346 346 346 347 348 347 348 350 352 353 355 357 357 360 361 362 365 365 365 363 367 364 363
293 295 299 303 297 297 303 306 307 309 312 312 311 312 312 313 313 314 313 315 317 318 318 319 321 324 326 328 331 334 334 335 337 338 340 342 344 345 346 346 345 344 344 346 346 346 347 351 352 352 353 354 356 357 360 364 364 365 364 364 364 366 367
293 300 303 305 304 303 304 305 307 308 310 310 310 310 311 312 314 314 313 313 315 316 317 318 319 322 324 326 328 331 334 336 338 339 340 341 343 344 344 343 344 344 343 344 344 344 347 350 351 353 353 355 357 353 359 362 362 366 367 364 364 362 362
301 303 303 304 303 302 305 307 308 309 310 310 309 311 311 312 313 313 313 313 313 314 315 317 319 321 323 324 327 328 334 337 338 339 340 341 342 343 345 346 345 344 344 344 344 344 347 349 348 351 346 348 353 349 357 357 356 356 357 365 362 360 357
299 304 305 306 306 306 307 308 309 310 311 311 310 310 311 312 312 313 312 313 314 315 314 315 318 321 321 322 326 329 332 336 338 339 340 341 342 342 343 344 346 346 346 346 347 348 348 348 348 348 346 347 350 349 353 352 354 354 354 356 351 351 355
Wind_Speed
19 22 20 19 17 14 15 15 18 16 13 13 9 10 13 12 10 11 8 12 14 11 11 12 15 17 20 21 19 15 17 24 23 21 21 20 18 20 19 17 15 16 15 12 13 16 20 23 22 22 20 20 20 19 20 21 21 21 22 21 20 18 18
19 20 21 22 19 12 12 16 15 13 14 13 10 9 7 11 11 9 13 14 12 14 11 11 15 15 14 20 21 19 15 18 19 23 22 19 19 19 24 23 23 23 21 22 22 22 26 25 26 22 20 18 17 18 20 21 21 21 21 21 20 19 19
20 19 20 21 21 20 14 15 13 15 13 15 11 7 11 10 11 8 10 15 13 14 11 12 17 17 16 14 18 20 18 17 21 22 23 21 18 17 19 19 17 19 18 22 23 27 27 25 22 20 18 19 18 18 20 22 24 24 23 21 20 18 19
22 18 17 19 19 20 20 12 16 14 10 12 12 10 7 6 8 8 9 11 9 11 12 14 13 16 14 16 14 21 20 16 15 19 22 19 18 14 18 20 20 20 20 19 23 23 23 24 23 22 24 22 23 22 21 21 22 20 20 20 18 18 19
22 18 16 19 19 19 18 15 13 14 11 8 10 9 12 7 6 7 8 9 7 7 10 13 13 15 14 14 13 12 16 16 14 19 21 20 17 14 17 18 19 20 21 23 22 20 18 18 19 20 21 24 23 21 22 23 23 24 23 22 20 17 17
20 20 18 21 22 21 18 16 14 14 15 14 15 12 11 12 8 4 6 7 7 13 11 12 13 13 14 13 13 13 17 17 14 14 18 18 17 16 16 19 19 19 17 15 14 11 7 11 18 23 22 21 23 23 22 23 22 22 23 22 19 18 17
18 19 21 21 21 22 20 17 15 15 15 13 11 9 11 11 12 10 6 9 3 9 9 5 8 12 12 13 10 10 13 15 18 17 18 22 21 20 20 18 20 18 16 15 14 17 17 18 20 22 21 21 22 23 23 22 23 23 22 21 19 16 16
11 22 18 20 20 21 21 20 18 16 15 17 11 10 8 9 11 11 7 8 4 5 1 3 3 5 13 10 12 11 13 13 12 18 18 17 21 19 18 19 16 14 15 13 12 14 16 20 19 21 21 20 20 21 22 22 24 24 23 21 20 18 17
9 18 16 17 20 18 15 16 19 19 16 18 15 11 8 9 12 12 9 10 6 6 7 7 3 3 7 13 13 14 15 11 10 14 11 13 18 14 15 10 15 15 16 15 13 14 15 16 17 17 18 18 20 20 21 21 21 22 21 19 20 20 20
16 19 17 17 19 20 14 18 21 24 23 19 16 14 9 6 8 12 9 8 7 8 5 5 4 9 9 12 12 9 13 10 2 13 9 11 17 16 13 13 17 17 16 15 13 12 11 13 15 13 15 18 19 19 21 20 19 20 21 19 20 20 20
8 4 5 10 15 14 18 20 23 24 24 19 17 10 10 9 7 11 8 4 12 10 10 9 9 12 7 13 12 9 12 15 14 10 11 9 9 11 11 10 12 10 12 13 14 13 12 17 16 14 17 18 18 15 17 19 18 18 17 18 17 19 20
11 3 3 11 6 14 22 21 23 23 25 23 19 15 12 6 7 9 7 6 12 11 9 11 8 5 11 11 13 15 12 10 12 11 10 12 12 10 9 11 10 9 8 8 11 14 15 16 15 14 16 17 16 14 16 17 18 18 16 17 16 16 17
16 16 7 8 8 8 8 23 21 24 24 25 23 18 14 12 8 7 9 5 7 10 10 14 12 7 11 13 13 13 13 11 11 9 13 15 13 9 8 7 8 9 9 7 9 11 12 15 15 15 14 15 14 12 14 15 17 19 16 15 16 17 17
14 14 16 9 7 9 16 14 23 20 24 25 25 18 17 14 9 6 11 3 7 10 13 12 14 9 18 15 12 14 14 12 4 11 9 15 15 13 9 8 6 5 6 6 9 8 9 11 12 15 12 11 14 15 14 16 15 15 13 15 15 16 17
15 15 16 14 12 10 12 16 19 24 20 22 23 20 18 16 14 12 13 11 6 11 7 7 13 11 11 15 14 14 8 11 12 7 7 6 11 17 13 8 9 6 6 6 6 7 7 8 10 11 10 10 12 17 16 17 14 14 14 12 15 16 16
9 14 18 15 8 6 12 15 15 17 22 22 20 19 16 16 12 13 13 14 9 12 12 12 14 12 11 11 9 8 6 7 5 5 4 8 5 8 13 10 12 10 10 8 8 9 11 12 9 9 8 9 12 15 15 16 16 16 15 12 15 15 14
12 11 13 16 8 5 12 15 12 5 11 13 18 18 19 18 14 15 9 12 9 10 8 11 9 10 12 7 5 7 3 4 4 6 6 6 3 1 4 9 9 12 13 12 12 12 13 12 11 12 10 11 10 9 10 11 12 16 17 17 13 14 15
11 12 14 15 9 11 12 7 7 8 13 10 18 21 19 19 14 11 10 10 9 14 9 8 7 4 6 6 7 8 6 6 4 4 4 1 2 3 3 3 6 4 1 11 11 11 9 12 14 13 11 12 9 10 10 9 12 11 12 13 11 14 14
9 9 12 10 18 12 6 5 8 12 7 7 9 11 23 21 22 16 15 15 10 9 4 3 3 4 6 7 9 8 7 6 7 4 0 2 2 0 2 4 5 7 6 4 5 3 2 1 1 7 13 11 10 11 10 10 10 9 10 11 10 10 14
6 10 11 13 11 7 6 8 14 17 5 8 10 13 13 11 11 12 5 12 10 7 5 5 6 4 8 8 7 3 3 2 2 3 5 5 6 5 3 11 10 8 9 7 6 7 6 5 4 4 5 11 13 13 13 12 10 9 9 10 12 9 12
5 5 12 12 2 10 15 13 18 13 7 9 7 4 2 2 5 12 6 4 4 7 5 5 7 4 4 3 3 4 3 5 6 6 1 13 16 15 13 11 11 8 8 7 7 4 3 3 5 6 7 7 9 12 12 12 9 10 10 10 12 11 10
7 5 7 11 12 8 8 8 11 10 4 4 5 2 2 6 4 5 5 10 6 10 15 10 10 7 4 3 3 1 6 12 14 13 14 13 12 11 11 9 11 11 9 8 6 6 7 6 7 6 7 7 5 2 9 11 11 11 11 12 11 10 10
8 7 8 8 11 10 7 14 16 9 2 5 4 3 6 11 19 6 8 8 9 7 6 5 3 5 4 4 4 9 10 9 12 11 12 11 10 9 8 11 9 8 5 4 5 5 5 4 5 4 5 6 6 6 3 8 10 11 12 11 10 11 10
8 8 7 7 4 3 16 13 15 8 8 8 6 8 5 16 18 15 20 3 10 5 6 7 6 3 6 3 9 9 12 9 12 10 10 9 9 9 9 10 8 5 4 2 3 5 6 8 7 7 6 4 6 5 6 6 9 11 11 9 9 9 9
9 10 9 8 5 7 16 18 9 3 13 14 16 8 5 11 10 14 13 12 13 12 7 4 3 3 8 9 8 11 11 11 10 10 8 8 7 8 8 8 6 5 5 7 5 6 6 5 6 5 4 6 5 4 5 5 6 7 8 8 8 8 9
9 8 8 8 7 5 15 15 16 20 4 9 3 4 9 6 11 16 15 12 14 12 11 6 8 8 11 12 10 11 11 10 9 9 10 8 8 6 7 6 5 6 6 6 6 7 6 6 7 8 5 4 4 5 4 5 4 4 1 8 8 9 9
10 9 8 7 2 7 18 15 14 19 9 3 4 5 10 7 11 11 13 14 13 13 9 9 10 10 11 12 13 12 11 10 10 9 9 10 9 9 8 6 8 7 5 5 6 5 6 7 7 8 9 9 4 3 4 3 3 2 3 3 7 8 8
8 7 8 1 4 8 10 12 9 7 8 5 6 5 7 9 8 10 9 11 12 11 10 9 8 9 9 10 12 11 10 10 10 9 9 9 9 9 8 8 7 8 4 4 4 5 5 6 5 6 8 8 1 1 3 5 4 3 3 1 6 7 7
4 3 6 4 6 5 8 13 10 9 8 8 7 8 7 9 8 10 8 10 11 12 13 10 9 7 9 9 11 11 12 12 11 11 9 9 8 8 8 7 8 6 6 3 5 6 6 6 5 6 7 7 8 8 6 5 6 7 5 2 4 5 6
7 10 9 7 7 6 8 6 8 7 8 6 8 10 7 7 9 8 9 10 10 10 11 11 10 9 8 9 8 10 11 11 10 10 10 10 10 9 9 8 9 8 9 6 6 5 5 5 4 3 6 7 7 5 5 5 5 5 7 4 3 4 4
4 3 2 4 5 5 1 7 9 7 6 7 8 8 7 7 8 9 8 9 9 9 8 10 11 12 10 8 9 9 8 9 10 10 9 9 9 9 7 6 7 6 6 5 5 5 6 8 8 5 4 4 4 0 3 3 3 4 3 2 3 3 4
8 10 10 9 12 13 14 8 8 10 9 8 8 6 7 6 6 7 8 8 8 9 8 9 9 11 12 11 8 8 7 7 8 9 8 9 9 7 7 5 5 6 5 5 4 4 5 5 5 6 5 4 4 4 3 1 2 1 1 1 2 2 3
10 12 13 11 11 13 12 9 7 9 9 9 5 6 8 9 10 10 10 9 8 9 9 10 9 10 11 13 11 9 8 7 6 7 8 8 9 7 5 4 4 4 5 3 4 5 5 3 3 2 3 2 1 2 1 1 2 4 2 2 3 4 3
9 8 8 5 8 7 7 8 8 5 8 8 10 8 8 9 11 11 12 12 10 9 8 9 9 9 9 12 13 11 8 6 6 6 6 7 9 8 4 3 2 1 2 3 2 3 3 3 2 1 2 2 2 4 4 2 2 2 4 4 4 4 3
9 9 11 9 10 10 11 14 12 11 8 12 13 13 12 10 10 11 13 14 14 13 11 10 10 10 9 11 14 15 11 7 6 6 5 5 7 5 4 4 1 2 1 1 1 1 4 5 6 5 1 3 5 4 3 3 2 3 3 2 3 6 6
16 17 16 15 12 12 12 13 11 11 9 9 11 13 14 13 11 11 12 13 13 14 14 13 11 11 11 10 12 15 14 12 9 6 5 6 6 7 4 2 1 2 3 3 2 0 2 4 6 5 5 5 6 4 6 6 8 9 8 1 3 4 6
14 13 15 15 15 15 12 12 13 12 9 8 10 12 14 15 15 13 13 13 12 13 14 14 14 12 11 11 10 12 14 12 9 8 6 5 5 6 4 2 4 3 3 3 3 3 4 5 6 4 5 4 4 7 5 6 6 7 9 6 7 7 5
Wind_Direction
197 197 194 212 202 200 180 194 207 211 196 216 225 229 219 227 222 228 212 210 222 252 238 220 224 220 211 212 230 224 207 173 176 179 179 186 183 169 175 177 181 181 182 169 194 211 208 200 198 195 191 188 184 179 180 182 182 182 182 183 183 184 185
207 189 194 211 214 211 173 206 204 208 211 223 234 238 202 221 225 216 217 223 206 207 229 207 213 221 226 202 208 219 225 177 176 169 176 187 184 184 170 171 178 185 187 186 189 204 208 198 197 195 189 187 182 180 181 181 182 184 184 183 184 184 184
191 181 190 209 223 219 211 200 183 205 183 207 213 249 236 210 220 237 207 221 227 197 210 205 208 210 212 231 196 205 221 200 187 175 175 178 183 189 158 165 168 173 180 184 195 198 199 194 193 194 185 185 182 182 183 183 184 185 184 185 186 185 184
178 184 186 204 203 213 230 202 197 205 219 207 203 209 251 246 219 221 234 229 238 195 201 202 202 198 201 224 212 194 209 214 197 162 166 179 180 186 158 168 171 177 183 187 194 197 200 196 192 194 192 189 189 186 183 187 187 185 185 187 186 185 187
177 197 189 203 194 196 203 217 202 184 225 192 224 195 224 226 246 202 223 226 232 249 182 187 197 185 187 213 222 189 202 204 192 162 177 178 176 183 166 170 173 178 186 190 188 188 195 209 197 195 195 193 191 188 188 187 186 187 187 188 186 187 189
197 198 190 198 199 199 201 208 206 193 192 199 197 213 198 226 237 244 221 235 234 213 198 182 198 165 173 197 225 188 197 203 183 186 178 167 173 183 179 175 171 177 177 180 172 169 165 207 208 199 197 195 192 192 191 189 189 190 189 188 188 185 189
198 195 185 199 206 203 206 202 213 203 189 210 201 213 190 206 225 244 251 269 51 357 54 125 142 150 172 182 208 176 191 208 193 185 187 168 174 180 183 165 169 170 166 175 163 167 179 210 209 197 198 197 196 194 192 191 190 191 190 190 189 187 190
258 185 187 188 209 209 204 205 214 211 201 198 212 209 198 202 202 216 222 245 84 80 77 133 39 113 162 170 180 177 187 221 206 180 193 173 170 178 173 171 172 154 158 166 163 176 185 203 202 193 198 199 197 196 195 193 193 190 190 190 189 186 189
248 183 185 194 194 218 211 203 201 217 213 192 209 214 198 215 201 209 208 217 146 125 75 74 117 179 184 167 182 180 177 209 223 171 180 144 155 158 167 147 126 140 154 169 177 184 195 198 194 191 196 199 199 198 197 197 194 191 191 190 190 187 188
207 186 188 191 189 201 216 208 197 207 220 199 191 209 196 210 182 206 210 210 115 115 110 133 183 171 243 163 173 176 155 188 77 73 69 142 148 156 164 158 153 160 166 175 178 186 192 190 194 190 193 200 201 200 200 199 195 193 193 191 190 187 188
213 184 207 204 195 186 217 204 204 195 216 215 198 205 212 199 176 197 203 227 128 160 150 183 170 175 188 138 154 173 89 83 71 66 80 83 121 144 146 155 149 150 161 178 178 182 179 187 195 192 192 198 203 199 199 200 198 196 192 192 190 189 189
245 97 153 19 316 209 204 215 201 199 199 216 206 196 204 174 176 200 180 144 160 151 172 150 142 163 148 159 170 121 114 90 95 103 87 102 113 122 122 118 122 144 156 162 175 184 188 189 189 198 196 198 201 197 197 199 202 198 194 192 189 187 188
246 253 282 316 313 314 234 213 210 200 197 205 216 197 202 180 201 183 161 158 186 130 150 126 131 193 159 155 125 99 91 110 135 133 127 116 118 119 123 110 135 167 176 184 176 178 179 183 191 199 200 198 198 199 198 197 203 203 194 189 190 190 187
252 253 246 238 292 296 326 250 214 207 196 200 211 210 200 195 183 219 159 80 124 147 122 162 153 119 85 69 74 81 69 48 59 124 143 138 138 136 135 146 163 150 150 125 150 156 173 186 190 199 201 195 194 198 200 199 202 206 194 190 190 192 191
253 260 262 241 247 276 267 305 216 199 200 199 203 216 202 202 188 206 175 155 193 145 149 121 88 52 70 108 95 66 74 96 107 125 102 79 144 139 137 137 164 151 139 138 134 162 181 195 195 198 198 199 196 201 203 203 199 206 203 189 190 194 196
261 249 239 212 233 262 291 277 265 221 201 197 196 207 205 203 184 190 186 156 185 116 100 107 96 96 82 76 74 84 78 89 73 61 51 63 16 128 143 149 144 151 151 160 170 179 191 203 207 198 197 197 201 207 201 203 201 202 211 196 190 192 193
257 240 237 226 200 284 257 252 240 181 293 244 196 201 205 213 195 189 200 171 162 121 117 135 107 108 101 111 107 95 127 40 66 56 39 44 106 316 62 103 126 147 164 173 180 185 190 198 203 206 204 203 203 209 206 199 200 202 207 210 191 189 190
258 250 267 236 194 220 230 241 236 247 257 245 205 194 199 207 206 192 190 166 177 88 107 125 126 159 119 112 77 62 62 101 98 196 139 202 161 101 90 39 158 101 144 156 170 183 175 184 195 201 203 203 205 204 213 201 201 205 199 209 204 185 188
257 252 236 243 222 217 231 264 265 253 280 315 306 277 196 197 197 203 174 163 195 97 111 135 66 46 80 91 102 127 95 49 70 42 60 78 338 252 135 213 81 68 80 75 90 59 170 235 218 189 189 201 195 203 209 211 200 200 199 200 209 185 186
263 214 221 226 217 241 217 222 249 238 214 302 309 296 175 179 150 85 134 146 167 126 84 80 102 113 90 102 82 30 48 159 326 6 336 321 299 254 173 89 68 59 50 26 20 24 6 320 307 279 212 193 198 204 207 211 205 198 198 197 205 192 186
262 242 219 221 212 214 213 226 220 205 202 232 243 254 88 18 139 149 151 178 156 134 170 179 125 116 114 128 78 48 293 278 285 275 166 53 44 37 49 61 70 55 51 41 33 7 352 321 276 270 260 235 211 198 201 205 201 199 199 201 203 199 186
272 275 229 213 216 203 198 271 282 250 205 316 291 286 178 246 277 78 196 197 182 208 193 160 102 84 79 100 124 128 41 32 37 33 34 37 39 34 33 50 59 52 36 14 2 333 321 306 295 293 295 292 307 258 189 189 191 198 202 206 202 198 192
295 267 274 221 208 214 229 214 233 171 41 248 322 162 178 22 353 311 280 181 85 58 56 77 104 118 160 159 74 28 31 24 37 27 24 25 22 24 32 52 38 26 16 328 301 284 269 321 323 286 270 287 301 301 258 193 187 196 204 204 198 198 192
260 256 239 249 192 69 353 306 205 185 166 219 237 215 134 348 358 1 358 107 140 155 47 41 54 110 171 136 33 351 16 356 30 21 12 15 10 11 4 45 22 5 324 295 19 333 18 7 328 332 339 307 268 277 301 256 203 196 201 196 193 192 189
248 262 265 227 109 11 340 341 20 267 194 194 212 218 63 317 353 18 5 36 37 43 48 53 164 76 13 5 355 5 4 4 10 9 358 9 1 355 353 21 355 28 359 31 7 357 21 336 326 308 293 303 297 279 270 278 247 222 186 180 181 184 185
245 249 262 241 93 10 349 333 22 5 311 190 128 24 263 315 15 15 1 38 38 29 34 18 35 360 353 352 355 9 5 2 9 354 6 1 2 354 7 328 28 30 12 8 355 348 333 340 353 343 323 248 270 291 278 271 265 262 203 170 171 174 177
268 262 248 257 229 0 355 2 31 23 41 80 255 5 348 16 27 12 22 30 28 22 24 23 5 357 350 354 360 359 359 359 360 0 2 6 360 4 341 355 36 17 6 8 358 348 1 4 346 334 333 318 241 264 280 283 293 273 299 166 161 163 170
244 239 238 7 52 288 350 31 58 50 49 49 39 52 355 350 26 16 15 27 14 13 12 1 12 355 354 354 352 346 353 356 354 4 2 355 351 339 349 340 5 349 346 30 356 9 16 4 347 335 335 313 192 240 12 5 340 299 297 204 154 156 162
290 299 10 318 279 294 23 35 25 22 25 12 20 49 31 354 25 10 17 14 8 5 358 352 356 347 1 347 343 347 348 346 350 351 349 349 347 348 344 347 3 354 334 22 18 5 1 11 7 347 342 348 60 39 24 358 12 359 327 260 137 154 157
286 282 243 260 286 317 38 20 12 345 359 342 14 31 42 352 6 358 9 9 6 7 351 350 354 347 343 343 339 345 341 333 340 344 340 346 346 347 341 350 2 337 329 4 10 0 352 347 8 7 4 9 52 36 23 6 351 11 349 335 138 144 146
294 292 95 211 308 333 123 39 341 335 307 345 16 17 12 11 349 343 357 4 351 8 347 2 345 341 341 341 343 335 326 327 336 339 343 330 327 333 337 344 344 344 341 333 359 355 17 1 353 13 7 35 37 45 56 4 6 354 360 343 38 77 110
264 269 285 312 320 324 318 326 342 316 320 327 12 358 358 341 321 336 351 344 347 353 353 357 340 336 340 338 337 328 326 333 332 335 335 333 322 322 335 5 351 337 343 348 9 2 21 7 352 2 10 7 10 20 6 297 62 323 273 288 155 164 173
291 266 260 277 296 290 290 287 293 290 300 328 0 351 335 332 330 333 334 342 336 348 347 342 340 334 336 334 331 324 323 319 326 334 323 318 313 311 314 351 343 359 335 351 17 16 12 350 350 1 11 343 11 64 95 322 232 178 168 187 217 177 182
268 270 267 274 273 280 261 250 242 299 345 317 303 312 331 328 326 329 328 330 335 334 339 336 335 330 333 327 324 323 318 314 311 309 318 321 318 310 294 290 355 16 326 322 9 24 281 286 282 153 156 141 45 39 30 91 59 62 126 188 196 177 172
264 263 270 294 293 284 283 292 306 306 324 341 324 317 318 322 325 331 328 328 331 328 329 334 325 333 332 328 326 319 317 324 321 310 305 305 320 327 304 297 169 209 143 212 118 254 295 284 238 218 187 49 104 94 65 26 51 140 190 172 110 79 70
283 286 291 297 299 294 307 307 304 303 311 306 307 306 308 308 316 319 321 318 319 320 318 319 325 326 328 328 325 320 315 311 312 302 296 281 297 318 348 21 234 183 169 149 133 119 309 349 22 8 38 29 342 65 64 39 32 22 356 116 77 91 83
271 273 285 288 287 288 288 297 303 300 298 300 298 301 303 309 311 314 311 310 307 311 313 312 316 320 321 322 318 312 310 301 297 302 286 283 292 311 325 49 67 86 96 111 86 84 52 44 24 27 68 43 35 39 29 36 40 36 25 2 116 101 86